Location: Rounton
(54.4000°N, 1.3500°W)
Time: 13:16:44
(UTC+00:00)

Transit 4A - Pass Details

Date: 07 December 2021
Orbit: 864 x 981 km, 66.8° (Epoch: 18 January)

Event Time Altitude Azimuth Distance (km) Brightness Sun altitude
Rises 22:23:06 0° 283° (WNW) 3,527 - -53.7°
Reaches altitude 10° 22:26:01 10° 296° (WNW) 2,607 - -54.0°
Maximum altitude 22:31:04 27° 352° (N) 1,728 - -54.4°
Drops below altitude 10° 22:36:16 10° 49° (NE) 2,678 - -54.9°
Sets 22:39:18 0° 61° (ENE) 3,642 - -55.1°
